Flag for Kenya Weather past 2 weeks in Nairobi, Kenya

Now
61 °F

Partly sunny.


Feels Like: 61 °F
Forecast: 59 / 68 °F
Wind: No wind

Location: Nairobi / Wilson

Current Time: Jul 26, 2014 at 10:06:51 AM

Latest Report: Jul 26, 2014 at 8:00 AM


Visibility: N/A

Pressure: 30.18 "Hg

Humidity: 88%

Dew point: 57 °F

Location of NairobiLocation

Historic Weather in Nairobi — Graph

°F

Nairobi temperature yesterday

Maximum temperature yesterday: 70 °F (at 3:00 PM)
Minimum temperature yesterday: 59 °F (at 7:00 AM)
Average temperature yesterday: 65 °F

Past Weeks' High & Low Weather Summary

 TemperatureHumidityPressure
High81 °F (Jul 19, 4:00 PM)94% (Jul 12, 9:00 AM)30.30 "Hg (Jul 12, 9:00 AM)
Low55 °F (Jul 14, 8:00 AM)30% (Jul 22, 12:00 PM)30.12 "Hg (Jul 14, 6:00 PM)
Average65 °F73%30.21 "Hg
* Reported Jul 12 6:00 AM — Jul 26 8:00 AM, Nairobi, Weather by CustomWeather, © 2014

Note: Actual official high and low records may vary slightly from our data, if they occured in-between our weather recording intervals... More about our weather records

Advertising

Nairobi weather history for previous 24 hours

 ConditionsComfort  
Time TempWeatherWind HumidityBarometerVisibility
8:00 AM
Jul 26
61 °FPartly sunny.No wind88%30.18 "HgN/A
7:00 AM61 °FPartly sunny.No wind88%30.15 "HgN/A
6:00 AM61 °FPassing clouds.No wind88%30.15 "HgN/A
5:00 AM61 °FPassing clouds.No wind83%30.15 "HgN/A
4:00 AM61 °FPassing clouds.6 mph88%30.15 "HgN/A
3:00 AM61 °FPassing clouds.No wind88%30.15 "HgN/A
2:00 AM61 °FPassing clouds.No wind83%30.18 "HgN/A
1:00 AM61 °FPassing clouds.No wind83%30.21 "HgN/A
12:00 AM63 °FPassing clouds.9 mph77%30.21 "HgN/A
11:00 PM
Jul 25
63 °FPassing clouds.No wind77%30.21 "HgN/A
10:00 PM63 °FPassing clouds.6 mph77%30.21 "HgN/A
9:00 PM63 °FPassing clouds.6 mph83%30.15 "HgN/A
8:00 PM64 °FPassing clouds.9 mph78%30.15 "HgN/A
7:00 PM64 °FPassing clouds.9 mph78%30.15 "HgN/A
6:00 PM66 °FPartly sunny.14 mph73%30.15 "HgN/A
5:00 PM70 °FPartly sunny.6 mph60%30.15 "HgN/A
3:00 PM70 °FPartly sunny.No wind57%30.15 "HgN/A
2:00 PM68 °FPartly sunny.No wind64%30.18 "HgN/A
12:00 PM68 °FPartly sunny.No wind64%30.21 "HgN/A
11:00 AM64 °FPartly sunny.No wind73%30.24 "HgN/A
10:00 AM63 °FPartly sunny.No wind77%30.27 "HgN/A
Weather by CustomWeather, © 2014

See weather overviewHow to use our weather pages